Location: Unspecified
(0.0000°N, 0.0000°E)
Time: 01:04:42
(UTC+00:00)

Courier 1B Rocket - Pass Details

Date: 15 December 2018
Orbit: 920 x 1202 km, 28.3° (Epoch: 16 January)

Event Time Altitude Azimuth Distance (km) Brightness Sun altitude
Rises 06:09:50 0° 252° (WSW) 3,549 7.5 3.4°
Reaches altitude 10° 06:12:31 10° 258° (WSW) 2,604 6.8 4.0°
Maximum altitude 06:18:27 46° 331° (NNW) 1,221 5.3 5.4°
Drops below altitude 10° 06:24:34 10° 43° (NE) 2,678 7.6 6.8°
Sets 06:27:23 0° 49° (NE) 3,659 8.4 7.4°
